Time,TemperatureF,DewpointF,PressureIn,WindDirection,WindDirectionDegrees,WindSpeedMPH,WindSpeedGustMPH,Humidity,HourlyPrecipIn,Conditions,Clouds,dailyrainin,SolarRadiationWatts/m^2,SoftwareType,DateUTC
2013-06-18 00:08:00,60.3,59.0,29.97,ESE,103,0.0,0.0,96,0.00,,,0.00,0,weatherlink.com 1.10,2013-06-18 04:08:00,
2013-06-18 00:23:00,60.0,59.0,29.96,ESE,103,0.0,0.0,96,0.00,,,0.00,0,weatherlink.com 1.10,2013-06-18 04:23:00,
2013-06-18 00:38:00,60.0,59.0,29.96,ESE,103,0.0,0.0,96,0.00,,,0.00,0,weatherlink.com 1.10,2013-06-18 04:38:00,
2013-06-18 00:53:00,60.1,59.0,29.95,ESE,103,0.0,0.0,97,0.00,,,0.00,0,weatherlink.com 1.10,2013-06-18 04:53:00,
2013-06-18 01:08:00,60.2,59.0,29.95,ESE,103,0.0,0.0,97,0.00,,,0.00,0,weatherlink.com 1.10,2013-06-18 05:08:00,
2013-06-18 01:23:00,60.1,59.0,29.94,ESE,103,0.0,0.0,97,0.00,,,0.00,0,weatherlink.com 1.10,2013-06-18 05:23:00,
2013-06-18 01:38:00,60.0,59.0,29.94,ESE,103,0.0,0.0,97,0.00,,,0.00,0,weatherlink.com 1.10,2013-06-18 05:38:00,
2013-06-18 01:53:00,59.9,59.0,29.95,ESE,103,0.0,0.0,97,0.00,,,0.00,0,weatherlink.com 1.10,2013-06-18 05:53:00,
2013-06-18 02:08:00,59.8,59.0,29.95,ESE,103,0.0,0.0,97,0.00,,,0.00,0,weatherlink.com 1.10,2013-06-18 06:08:00,
2013-06-18 02:23:00,59.6,59.0,29.94,ESE,103,0.0,0.0,96,0.00,,,0.00,0,weatherlink.com 1.10,2013-06-18 06:23:00,
2013-06-18 02:38:00,59.5,59.0,29.94,ESE,103,0.0,0.0,97,0.00,,,0.00,0,weatherlink.com 1.10,2013-06-18 06:38:00,
2013-06-18 02:53:00,59.4,59.0,29.95,ESE,103,0.0,0.0,97,0.00,,,0.00,0,weatherlink.com 1.10,2013-06-18 06:53:00,
2013-06-18 03:08:00,59.2,58.0,29.95,ESE,103,0.0,0.0,97,0.00,,,0.00,0,weatherlink.com 1.10,2013-06-18 07:08:00,
2013-06-18 03:23:00,59.3,59.0,29.94,ESE,103,0.0,0.0,97,0.00,,,0.00,0,weatherlink.com 1.10,2013-06-18 07:23:00,
2013-06-18 03:38:00,59.2,58.0,29.93,ESE,103,0.0,0.0,97,0.00,,,0.00,0,weatherlink.com 1.10,2013-06-18 07:38:00,
2013-06-18 03:53:00,59.3,59.0,29.93,ESE,103,0.0,0.0,97,0.00,,,0.00,0,weatherlink.com 1.10,2013-06-18 07:53:00,
2013-06-18 04:08:00,59.1,58.0,29.93,ESE,103,0.0,0.0,97,0.00,,,0.00,0,weatherlink.com 1.10,2013-06-18 08:08:00,
2013-06-18 04:23:00,58.8,58.0,29.93,ESE,103,0.0,1.0,97,0.00,,,0.00,0,weatherlink.com 1.10,2013-06-18 08:23:00,
2013-06-18 04:38:00,58.8,58.0,29.93,ESE,103,0.0,1.0,97,0.00,,,0.00,0,weatherlink.com 1.10,2013-06-18 08:38:00,
2013-06-18 04:53:00,58.6,58.0,29.93,ESE,103,0.0,0.0,97,0.00,,,0.00,0,weatherlink.com 1.10,2013-06-18 08:53:00,
2013-06-18 05:08:00,58.7,58.0,29.93,ESE,103,0.0,0.0,97,0.00,,,0.00,0,weatherlink.com 1.10,2013-06-18 09:08:00,
2013-06-18 05:23:00,58.7,58.0,29.94,ESE,103,0.0,1.0,97,0.00,,,0.00,0,weatherlink.com 1.10,2013-06-18 09:23:00,
2013-06-18 05:38:00,58.3,58.0,29.94,ESE,103,0.0,0.0,97,0.00,,,0.00,0,weatherlink.com 1.10,2013-06-18 09:38:00,
2013-06-18 05:53:00,58.1,57.0,29.95,ESE,103,0.0,0.0,97,0.00,,,0.00,11,weatherlink.com 1.10,2013-06-18 09:53:00,
2013-06-18 06:08:00,58.4,58.0,29.95,ESE,103,0.0,0.0,98,0.00,,,0.00,18,weatherlink.com 1.10,2013-06-18 10:08:00,
2013-06-18 06:23:00,59.2,59.0,29.94,ESE,103,0.0,0.0,98,0.00,,,0.00,28,weatherlink.com 1.10,2013-06-18 10:23:00,
2013-06-18 06:38:00,59.8,59.0,29.95,ESE,103,0.0,0.0,98,0.00,,,0.00,19,weatherlink.com 1.10,2013-06-18 10:38:00,
2013-06-18 06:53:00,60.2,60.0,29.95,ESE,103,0.0,0.0,98,0.00,,,0.00,26,weatherlink.com 1.10,2013-06-18 10:53:00,
2013-06-18 07:08:00,60.7,60.0,29.95,ESE,103,0.0,0.0,98,0.00,,,0.00,32,weatherlink.com 1.10,2013-06-18 11:08:00,
2013-06-18 07:23:00,61.5,61.0,29.95,ESE,103,0.0,0.0,98,0.00,,,0.00,35,weatherlink.com 1.10,2013-06-18 11:23:00,
2013-06-18 07:38:00,62.4,62.0,29.95,ESE,103,0.0,0.0,99,0.00,,,0.00,39,weatherlink.com 1.10,2013-06-18 11:38:00,
2013-06-18 07:53:00,63.6,63.0,29.95,ESE,103,0.0,0.0,99,0.00,,,0.00,39,weatherlink.com 1.10,2013-06-18 11:53:00,
2013-06-18 08:08:00,65.2,65.0,29.95,East,100,0.0,2.0,98,0.00,,,0.00,42,weatherlink.com 1.10,2013-06-18 12:08:00,
2013-06-18 08:23:00,66.6,66.0,29.95,East,99,0.0,2.0,98,0.00,,,0.00,47,weatherlink.com 1.10,2013-06-18 12:23:00,
2013-06-18 08:38:00,68.0,67.0,29.95,East,99,0.0,1.0,97,0.00,,,0.00,58,weatherlink.com 1.10,2013-06-18 12:38:00,
2013-06-18 08:53:00,69.5,68.0,29.96,East,99,0.0,1.0,93,0.00,,,0.00,81,weatherlink.com 1.10,2013-06-18 12:53:00,
2013-06-18 09:08:00,71.1,68.0,29.96,East,97,0.0,1.0,89,0.00,,,0.00,93,weatherlink.com 1.10,2013-06-18 13:08:00,
2013-06-18 09:23:00,72.4,67.0,29.96,ENE,74,0.0,3.0,83,0.00,,,0.00,118,weatherlink.com 1.10,2013-06-18 13:23:00,
2013-06-18 09:39:00,73.7,66.0,29.96,SSE,153,1.0,4.0,76,0.00,,,0.00,84,weatherlink.com 1.10,2013-06-18 13:39:00,
2013-06-18 09:54:00,75.5,68.0,29.96,ESE,122,1.0,3.0,78,0.00,,,0.00,737,weatherlink.com 1.10,2013-06-18 13:54:00,
2013-06-18 10:09:00,76.7,65.0,29.95,ESE,116,0.0,3.0,68,0.00,,,0.00,434,weatherlink.com 1.10,2013-06-18 14:09:00,
2013-06-18 10:24:00,77.4,69.0,29.95,ENE,74,2.0,5.0,74,0.00,,,0.00,320,weatherlink.com 1.10,2013-06-18 14:24:00,
2013-06-18 10:39:00,77.5,66.0,29.95,East,98,2.0,4.0,68,0.00,,,0.00,406,weatherlink.com 1.10,2013-06-18 14:39:00,
2013-06-18 10:54:00,78.0,67.0,29.95,ENE,62,0.0,4.0,68,0.00,,,0.00,635,weatherlink.com 1.10,2013-06-18 14:54:00,
2013-06-18 11:09:00,78.8,67.0,29.95,ESE,123,2.0,5.0,67,0.00,,,0.00,881,weatherlink.com 1.10,2013-06-18 15:09:00,
2013-06-18 11:24:00,79.9,66.0,29.94,SSE,157,2.0,7.0,62,0.00,,,0.00,874,weatherlink.com 1.10,2013-06-18 15:24:00,
2013-06-18 11:39:00,80.9,66.0,29.94,NE,48,0.0,7.0,61,0.00,,,0.00,895,weatherlink.com 1.10,2013-06-18 15:39:00,
2013-06-18 11:54:00,81.8,65.0,29.93,NW,313,1.0,8.0,58,0.00,,,0.00,970,weatherlink.com 1.10,2013-06-18 15:54:00,
2013-06-18 12:09:00,81.4,65.0,29.93,WNW,300,1.0,6.0,58,0.00,,,0.00,580,weatherlink.com 1.10,2013-06-18 16:09:00,
2013-06-18 12:24:00,81.7,66.0,29.93,ENE,63,2.0,6.0,59,0.00,,,0.00,548,weatherlink.com 1.10,2013-06-18 16:24:00,
2013-06-18 12:39:00,81.6,67.0,29.93,NNE,22,2.0,5.0,62,0.00,,,0.00,744,weatherlink.com 1.10,2013-06-18 16:39:00,
2013-06-18 12:54:00,82.1,69.0,29.92,SE,146,3.0,6.0,65,0.00,,,0.00,686,weatherlink.com 1.10,2013-06-18 16:54:00,
2013-06-18 13:09:00,82.2,71.0,29.91,ENE,65,1.0,4.0,68,0.00,,,0.00,703,weatherlink.com 1.10,2013-06-18 17:09:00,
2013-06-18 13:24:00,82.5,70.0,29.91,NE,53,1.0,7.0,67,0.00,,,0.00,427,weatherlink.com 1.10,2013-06-18 17:24:00,
2013-06-18 13:39:00,82.1,71.0,29.91,East,83,3.0,7.0,70,0.00,,,0.00,1123,weatherlink.com 1.10,2013-06-18 17:39:00,
2013-06-18 13:54:00,81.4,70.0,29.90,East,91,0.0,5.0,68,0.00,,,0.00,510,weatherlink.com 1.10,2013-06-18 17:54:00,
2013-06-18 14:09:00,81.5,72.0,29.89,SSE,168,0.0,3.0,72,0.00,,,0.00,972,weatherlink.com 1.10,2013-06-18 18:09:00,
2013-06-18 14:24:00,82.3,71.0,29.88,ESE,117,2.0,11.0,68,0.00,,,0.00,536,weatherlink.com 1.10,2013-06-18 18:24:00,
2013-06-18 14:39:00,82.4,71.0,29.88,NE,46,6.0,8.0,69,0.00,,,0.00,497,weatherlink.com 1.10,2013-06-18 18:39:00,
2013-06-18 14:54:00,81.3,70.0,29.88,ENE,65,0.0,4.0,68,0.00,,,0.00,401,weatherlink.com 1.10,2013-06-18 18:54:00,
2013-06-18 15:09:00,80.2,69.0,29.88,NNE,32,3.0,5.0,69,0.00,,,0.00,274,weatherlink.com 1.10,2013-06-18 19:09:00,
2013-06-18 15:24:00,78.1,68.0,29.88,ESE,113,0.0,5.0,71,0.00,,,0.00,209,weatherlink.com 1.10,2013-06-18 19:24:00,
2013-06-18 15:39:00,75.3,68.0,29.89,ENE,67,0.0,3.0,78,0.00,,,0.00,195,weatherlink.com 1.10,2013-06-18 19:39:00,
2013-06-18 15:54:00,73.7,67.0,29.89,SSW,193,2.0,7.0,79,0.00,,,0.00,195,weatherlink.com 1.10,2013-06-18 19:54:00,
2013-06-18 16:09:00,73.0,67.0,29.91,ENE,78,0.0,2.0,81,0.00,,,0.00,111,weatherlink.com 1.10,2013-06-18 20:09:00,
2013-06-18 16:24:00,72.2,66.0,29.91,East,96,0.0,3.0,82,0.00,,,0.00,76,weatherlink.com 1.10,2013-06-18 20:24:00,
2013-06-18 16:39:00,71.3,66.0,29.92,East,96,0.0,0.0,84,0.00,,,0.00,42,weatherlink.com 1.10,2013-06-18 20:39:00,
2013-06-18 16:54:00,71.3,67.0,29.92,East,96,0.0,0.0,85,0.00,,,0.00,54,weatherlink.com 1.10,2013-06-18 20:54:00,
2013-06-18 17:09:00,70.6,67.0,29.92,East,96,0.0,1.0,87,0.00,,,0.00,51,weatherlink.com 1.10,2013-06-18 21:09:00,
2013-06-18 17:24:00,70.7,66.0,29.91,East,96,0.0,1.0,86,0.00,,,0.00,39,weatherlink.com 1.10,2013-06-18 21:24:00,
2013-06-18 17:39:00,70.5,66.0,29.92,East,96,0.0,1.0,84,0.00,,,0.00,26,weatherlink.com 1.10,2013-06-18 21:39:00,
2013-06-18 17:54:00,69.7,65.0,29.91,East,96,0.0,1.0,85,0.00,,,0.00,19,weatherlink.com 1.10,2013-06-18 21:54:00,
2013-06-18 18:09:00,68.6,64.0,29.91,ESE,105,0.0,4.0,85,0.00,,,0.00,11,weatherlink.com 1.10,2013-06-18 22:09:00,
2013-06-18 18:24:00,67.1,64.0,29.92,SSE,156,0.0,2.0,89,0.00,,,0.00,7,weatherlink.com 1.10,2013-06-18 22:24:00,
2013-06-18 18:39:00,66.4,64.0,29.92,SSE,156,0.0,0.0,91,0.03,,,0.03,9,weatherlink.com 1.10,2013-06-18 22:39:00,
2013-06-18 18:54:00,65.9,64.0,29.91,SSE,156,0.0,1.0,92,0.04,,,0.04,7,weatherlink.com 1.10,2013-06-18 22:54:00,
2013-06-18 19:09:00,65.0,63.0,29.92,SSE,156,0.0,2.0,92,0.05,,,0.05,7,weatherlink.com 1.10,2013-06-18 23:09:00,
2013-06-18 19:24:00,64.3,63.0,29.92,ENE,73,0.0,2.0,94,0.06,,,0.06,5,weatherlink.com 1.10,2013-06-18 23:24:00,
2013-06-18 19:39:00,64.2,63.0,29.91,ENE,73,0.0,1.0,94,0.04,,,0.00,0,weatherlink.com 1.10,2013-06-18 23:39:00,
2013-06-18 19:54:00,64.0,62.0,29.91,ENE,73,0.0,0.0,94,0.05,,,0.02,0,weatherlink.com 1.10,2013-06-18 23:54:00,
2013-06-18 20:09:00,63.8,62.0,29.92,ENE,73,0.0,0.0,95,0.04,,,0.02,0,weatherlink.com 1.10,2013-06-19 00:09:00,
2013-06-18 20:25:00,63.5,62.0,29.92,ENE,65,0.0,1.0,95,0.04,,,0.03,0,weatherlink.com 1.10,2013-06-19 00:25:00,
2013-06-18 20:40:00,63.3,62.0,29.92,ENE,65,0.0,1.0,95,0.04,,,0.04,0,weatherlink.com 1.10,2013-06-19 00:40:00,
2013-06-18 20:55:00,63.1,62.0,29.93,North,355,0.0,4.0,96,0.03,,,0.05,0,weatherlink.com 1.10,2013-06-19 00:55:00,
2013-06-18 21:10:00,62.8,62.0,29.94,WSW,255,1.0,2.0,96,0.03,,,0.05,0,weatherlink.com 1.10,2013-06-19 01:10:00,
2013-06-18 21:25:00,62.8,62.0,29.95,SW,225,0.0,3.0,96,0.03,,,0.06,0,weatherlink.com 1.10,2013-06-19 01:25:00,
2013-06-18 21:40:00,62.4,61.0,29.94,WSW,257,0.0,2.0,96,0.03,,,0.07,0,weatherlink.com 1.10,2013-06-19 01:40:00,
2013-06-18 21:55:00,62.3,61.0,29.94,SSE,162,0.0,1.0,96,0.02,,,0.07,0,weatherlink.com 1.10,2013-06-19 01:55:00,
2013-06-18 22:10:00,61.8,60.0,29.94,NNE,22,0.0,4.0,95,0.03,,,0.08,0,weatherlink.com 1.10,2013-06-19 02:10:00,
2013-06-18 22:25:00,61.1,60.0,29.93,West,277,0.0,8.0,95,0.02,,,0.08,0,weatherlink.com 1.10,2013-06-19 02:25:00,
2013-06-18 22:40:00,60.3,59.0,29.93,ENE,73,0.0,2.0,95,0.01,,,0.08,0,weatherlink.com 1.10,2013-06-19 02:40:00,
2013-06-18 22:55:00,60.0,59.0,29.93,ESE,115,1.0,2.0,96,0.02,,,0.09,0,weatherlink.com 1.10,2013-06-19 02:55:00,
2013-06-18 23:10:00,60.0,59.0,29.93,SSW,205,0.0,1.0,96,0.01,,,0.09,0,weatherlink.com 1.10,2013-06-19 03:10:00,
2013-06-18 23:25:00,60.1,59.0,29.93,SSW,206,0.0,1.0,97,0.02,,,0.10,0,weatherlink.com 1.10,2013-06-19 03:25:00,
2013-06-18 23:40:00,60.1,59.0,29.93,SSW,207,0.0,2.0,97,0.03,,,0.11,0,weatherlink.com 1.10,2013-06-19 03:40:00,
2013-06-18 23:55:00,60.0,59.0,29.91,SSE,151,0.0,2.0,97,0.02,,,0.11,0,weatherlink.com 1.10,2013-06-19 03:55:00,